Location: La Trinit�
(48.1620°N, 3.4512°W)
Time: 17:04:33
(UTC+00:00)

Cosmos 1666 - Pass Details

Date: 08 May 2021
Orbit: 495 x 519 km, 82.5° (Epoch: 15 June)

Event Time Altitude Azimuth Distance (km) Brightness Sun altitude
Rises 21:45:36 0° 353° (N) 2,606 7.4 -17.0°
Reaches altitude 10° 21:47:45 10° 357° (N) 1,714 6.2 -17.2°
Maximum altitude 21:51:28 61° 79° (ENE) 569 2.7 -17.5°
Enters shadow 21:52:23 45° 135° (SE) 693 2.8 -17.6°
